STARLINK-2407, 47822

Orbit data source: Space-Track

STARLINK-2407, 47822 is a payload satellite owned by SpaceX/Seattle (US) in LEO that was launched on Thu, 11 Mar 2021 UTC via an FALCON 9 launch vehicle from the Air Force Eastern Test Range (AFETR). Payload-class satellites include a variety of spacecraft equipped with specific instruments for various scientific and technological missions. These include communications satellites like Starlink; space stations such as the ISS; scientific satellites like the Hubble; Earth observation satellites from companies like Planet Labs, Umbra, and HawkEye 360; GPS; miniature CubeSats for education and research; and military/defense satellites.

Loading next visibility...
Identifier
47822, 2021-018AM
Orbit
LEO
Country
Flag of USUS
Related business
Manufacturer
SpaceX/Seattle
Mission
Operational Commercial Communications
Bus & Motor
STARLINK, Unknown motor
Mass
260 kg wet, ~248 kg dry
Launch date (UTC)
2021-03-11 (5 years ago)
Launch vehicle
FALCON 9
Launch site
Air Force Eastern Test Range (AFETR)
Object type
Payload
Rocket body
Debris
Shape & HBR
Box + 1 Pan, 10.1 m
Radar Cross Section
13.562 m², Large (>1 m²)

Expand to show TLE details & history
Last TLE update: 2 days ago

TLE from 2 days ago
0 STARLINK-2407
1 47822U 21018AM  26171.27881287  .00004094  00000-0  14367-3 0  9996
2 47822  53.1600 138.0252 0001259  93.5681 266.5465 15.31690660292273
Epoch: 2026-06-20T06:41Z
TLE epoch observation values (Epoch: 2026-06-20T06:41:29.431Z)
Latitude
Longitude
129.15685°
Altitude
471.72 km
Speed
7.631 km/s
True Right ascension
09h 12m 06s
True Declination
0° 00' 00"
Sunlit
Object was in daylight at epoch
Visualization orbit readout
Latitude
Unknown
Longitude
Unknown
Altitude
Unknown
Speed
Unknown
Apparent Right ascension
Unknown
Apparent Declination
Unknown
Sunlit
N/A
Visualization observer readout
Local Sidereal Time
02:14:44
Azimuth
Unknown
Elevation
Unknown
Doppler factor
Unknown
Orbital elements
Apogee altitude
471.887 km
Perigee altitude
470.162 km
Semi-major axis
6,849.161 km
Eccentricity
0.00013
Inclination
53.16°
RAAN
138.0252°
Arg. of periapsis
93.5681°
True anomaly
266.5321°
Mean anomaly
266.5465°
Eccentric anomaly
266.5393°
Mean motion
3.82901 °/min
Orbital period
94.02 mins
BSTAR
0.00014367
Loading maneuver chart data...
Computing Atmospheric mass density...

Documentation

Showing up to 5 results
|